Location: Fort Wayne
(41.1310°N, 85.1290°W)
Time: 04:24:24
(UTC-04:00)

COSMOS 2428 - Visible Passes

Search period start: 24 July 2014 00:00
Search period end: 03 August 2014 00:00
Orbit: 847 x 855 km, 71.0° (Epoch: 24 July)

Date Brightness Start Highest point End Pass type
(mag) Time Alt. Az. Time Alt. Az. Time Alt. Az.
24 Jul 4.9 01:30:26 10° WNW 01:32:30 12° W 01:32:30 12° W visible
24 Jul 4.7 21:48:42 10° NNE 21:51:51 15° NE 21:54:59 10° E visible
24 Jul 2.6 23:31:16 10° NNW 23:36:58 86° ENE 23:38:35 49° SSE visible
25 Jul 4.9 01:18:14 10° WNW 01:20:22 12° W 01:20:36 12° W visible
25 Jul 4.7 21:36:30 10° NNE 21:39:39 15° NE 21:42:47 10° E visible
25 Jul 2.6 23:19:04 10° NNW 23:24:46 86° ENE 23:26:43 43° SSE visible
26 Jul 4.9 01:06:02 10° WNW 01:08:10 12° W 01:08:44 12° WSW visible
26 Jul 2.6 23:06:52 10° NNW 23:12:34 86° ENE 23:14:53 38° SSE visible
27 Jul 5.0 00:53:50 10° WNW 00:55:58 12° W 00:56:54 12° WSW visible
27 Jul 2.6 22:54:40 10° NNW 23:00:23 86° ENE 23:03:06 33° SSE visible
28 Jul 5.0 00:41:38 10° WNW 00:43:46 12° W 00:45:07 11° WSW visible
28 Jul 2.7 22:42:28 10° NNW 22:48:11 86° ENE 22:51:21 28° SSE visible
29 Jul 5.0 00:29:26 10° WNW 00:31:34 12° W 00:33:22 11° WSW visible
29 Jul 2.7 22:30:16 10° NNW 22:35:59 86° ENE 22:39:38 23° SSE visible
30 Jul 5.1 00:17:14 10° WNW 00:19:22 12° W 00:21:30 10° WSW visible
30 Jul 2.7 22:18:04 10° NNW 22:23:46 86° ENE 22:27:59 19° SSE visible
31 Jul 5.1 00:05:02 10° WNW 00:07:10 12° W 00:09:18 10° WSW visible
31 Jul 2.7 22:05:51 10° NNW 22:11:34 86° ENE 22:16:23 15° SSE visible
31 Jul 5.1 23:52:50 10° WNW 23:54:58 12° W 23:57:06 10° WSW visible
01 Aug 2.7 21:53:39 10° NNW 21:59:22 86° ENE 22:04:50 11° SSE visible
01 Aug 5.2 23:40:38 10° WNW 23:42:46 12° W 23:44:53 10° WSW visible
02 Aug 2.7 21:41:27 10° NNW 21:47:10 86° ENE 21:52:51 10° SSE visible
02 Aug 5.2 23:28:26 10° WNW 23:30:34 12° W 23:32:41 10° WSW visible
